Regional Weather Roundup
Issued by NWS Jackson, KY

Home | Current Version | Previous Version | Graphics & Text | Print | Product List | Glossary On
Versions: 1 2 3 4 5 6 7 8 9 10 11 12 13 14 15 16 17 18 19 20 21 22 23 24 25 26 27
000
ASUS43 KJKL 060910
RWRJKL

EAST KENTUCKY HOURLY WEATHER ROUNDUP
NATIONAL WEATHER SERVICE JACKSON KY
500 AM EDT FRI MAY 06 2016

NOTE: "FAIR" INDICATES FEW OR NO CLOUDS BELOW 12,000 FEET WITH
NO SIGNIFICANT WEATHER AND/OR OBSTRUCTIONS TO VISIBILITY.

* THESE REPORTS ARE NOT UNDER NWS QUALITY CONTROL AND MAY NOT
  REPORT WEATHER SUCH AS PRECIPITATION AND FOG.

KYZ079-080-083-085-087-088-110-112-115-119-120-061000
...EASTERN KENTUCKY...

CITY           SKY/WX    TMP DP  RH WIND       PRES   REMARKS
JACKSON        CLEAR     44  42  93 NW5       29.86S FOG
LONDON         PTCLDY    44  41  89 CALM      29.89S
SOMERSET*      CLOUDY    41  41 100 CALM      29.93S FOG
MONTICELLO*    MOCLDY    44  43  96 VRB6      29.94S
WILLIAMSBURG*  SUNNY     43  43 100 CALM      29.90F
MIDDLESBORO*   CLEAR     49  44  81 NW3       29.88S
HARLAN APT*      N/A     46  41  81 CALM      29.87R
HAZARD APT*    SUNNY     45  45 100 CALM      29.87S
BLACK MTN*       N/A     37  41 100 N12         N/A  WCI  30
PIKE CO APT*     N/A     44  44  99 W5        29.84S
BIG SANDY APT* MOSUNNY   46  44  95 CALM      29.85R
MOREHEAD APT*  SUNNY     45  43  93 NW7       29.90R FOG
$$

KYZ035-036-041-042-044-050-067-078-099-061000
...CENTRAL KENTUCKY...

CITY           SKY/WX    TMP DP  RH WIND       PRES   REMARKS
MT STERLING*   CLEAR     45  43  93 N3        29.91R
FLEMING/MASON* CLOUDY    46  42  85 NW6       29.90R
DANVILLE*      CLEAR     46  45  93 N7        29.92S
RICHMOND*      PTCLDY    46  43  87 NW6       29.90R
LEXINGTON      CLEAR     47  44  90 NW7       29.91S
FRANKFORT      CLEAR     48  44  86 NW5       29.91S
LOUISVILLE     CLEAR     52  42  69 N8        29.94R
LEBANON*         N/A     45  43  93 NW3       29.93S
BOWLING GREEN  CLEAR     50  45  83 NW5       29.96S
$$

KYZ091>093-OHZ055-061-077-WVZ005-015-034-035-042-061000
...SOUTHERN OHIO/WEST VIRGINIA...

CITY           SKY/WX    TMP DP  RH WIND       PRES   REMARKS
COVINGTON      MOCLDY    50  45  83 N9        29.91S
COLUMBUS       PTCLDY    48  39  71 N10       29.86S
DAYTON         PTCLDY    46  43  89 NW7       29.92S
WILMINGTON     CLEAR     46  38  73 N8        29.90R
HUNTINGTON     CLOUDY    50  43  77 W3        29.83S
CHARLESTON     CLOUDY    50  45  83 W3        29.80R
PINEVILLE*     CLOUDY    48  45  88 MISG      29.84S FOG
BECKLEY        CLOUDY    45  44  97 NW10      29.76S FOG
$$

VAZ002-007-008-TNZ017-027-036-066-071-061000
...SOUTHWEST VIRGINIA/EAST TENNESSEE...

CITY           SKY/WX    TMP DP  RH WIND       PRES   REMARKS
WISE*          CLOUDY    45  43  93 NW8       29.84S
BRISTOL        CLOUDY    49  44  83 W6        29.83R
MORRISTOWN*    CLOUDY    48  45  87 W5        29.87R
SEVIERVILLE*   CLOUDY    48  43  81 SW3       29.89S
KNOXVILLE      PTCLDY    46  43  89 SW7       29.90R
OAK RIDGE      CLEAR     51  42  71 NW5       29.91R
CROSSVILLE     CLEAR     46  42  86 NW9       29.91S
NASHVILLE      CLEAR     48  43  82 W5        29.97R
$$

...KEY TO REMARKS...
VSB - VISIBILITY IN MILES
WCI - WIND CHILL INDEX
HX  - HEAT INDEX

$$




USA.gov is the U.S. government's official web portal to all federal, state and local government web resources and services.